Theta_e
322 322 321 323 323 325 330 329 334 337 335 337 338 336 335 336 337 341 338 337 337 327 327 332 332 332 333 333 327 321 319 323 326 323 321 316 315 316 316 317 317 317 317 317 317 315 314 314 314 314 313 313 312 312 311 311 312 311 311 311 312 312 312 312 312 312 311 311 311 311 310 310 310 310 310 311 312 312 312 312 313 312 312 312 312 312 313 313 313 312 312 312 312 310 309 308 308
320 322 322 323 322 327 337 333 335 337 334 335 337 336 336 340 338 337 336 335 333 327 329 331 332 332 331 328 323 327 321 315 318 317 315 313 315 316 316 317 317 317 317 316 316 314 313 313 313 314 313 312 312 311 311 311 311 311 311 312 312 312 312 312 311 311 311 311 311 311 310 310 310 310 310 311 311 311 311 312 312 312 312 312 312 312 312 312 312 312 312 312 311 310 309 308 307
319 320 321 323 324 328 336 335 336 336 335 336 337 339 338 341 339 332 331 331 329 327 330 330 332 331 331 332 326 330 323 312 313 312 311 313 314 314 316 317 317 317 316 316 315 313 313 313 313 313 312 312 311 311 311 310 311 311 312 312 312 312 312 311 311 311 311 310 310 310 310 310 310 310 310 310 310 311 311 311 311 311 311 311 311 311 311 311 311 311 311 311 311 310 308 307 306
317 318 320 322 327 330 334 336 338 336 337 337 338 346 342 339 337 330 328 328 326 327 328 328 329 325 327 330 322 322 318 313 311 311 311 312 314 314 317 316 316 316 315 315 314 313 312 312 313 312 312 311 310 310 310 311 311 311 311 311 311 311 311 311 310 310 310 309 309 309 309 309 309 309 309 309 309 309 310 310 310 310 310 310 310 310 310 310 310 310 311 310 310 309 308 307 306
319 321 322 322 329 332 334 335 339 338 340 338 339 353 345 334 333 328 327 326 326 329 329 329 328 323 321 316 317 318 313 312 311 311 311 311 315 315 317 317 316 315 314 314 313 312 312 312 312 311 311 310 310 309 310 310 310 310 310 310 310 309 309 309 309 309 309 308 308 307 307 307 307 307 308 308 308 308 309 309 308 308 309 309 308 309 309 308 309 309 310 309 309 309 308 307 305
323 324 322 324 330 330 332 332 336 338 338 338 337 346 338 329 331 328 325 324 328 330 329 329 326 321 314 307 310 312 309 312 311 310 311 312 315 315 317 316 315 314 313 313 312 311 311 312 311 310 310 309 309 309 310 310 309 309 309 309 308 308 308 308 308 308 307 307 307 306 306 306 306 306 306 306 306 307 307 307 307 307 307 307 307 307 307 307 308 308 308 309 309 308 307 306 305
326 333 333 337 336 328 333 333 335 337 336 338 333 334 331 327 329 329 327 324 326 326 327 327 323 318 311 308 309 308 309 311 311 311 312 314 315 315 317 315 314 313 312 311 311 311 311 311 310 310 309 309 309 308 309 309 309 308 308 308 307 307 307 306 306 306 306 306 306 305 305 304 304 305 305 305 305 305 306 306 305 306 306 306 306 306 306 306 307 307 307 308 308 307 306 305 303
326 335 338 341 338 329 334 335 335 336 336 336 329 328 329 329 328 332 331 326 325 322 325 325 323 321 311 309 309 308 311 311 311 313 314 315 315 314 315 314 313 312 311 310 310 311 310 310 310 309 309 309 309 308 308 308 308 307 307 306 306 306 305 305 305 305 305 305 305 304 304 303 303 303 303 304 304 305 305 305 305 305 305 304 305 305 305 305 305 305 306 307 307 305 303 302 301
322 325 328 330 332 331 333 335 334 333 332 330 327 327 329 332 330 330 327 322 323 321 323 323 322 321 311 308 308 307 311 312 313 314 315 315 314 313 313 312 312 311 310 309 309 310 309 309 309 309 309 309 309 308 308 307 306 306 306 305 305 305 305 305 304 304 303 303 303 302 302 302 302 302 301 302 302 303 303 304 304 304 304 303 303 303 304 304 304 304 304 304 304 303 302 300 299
319 322 326 328 329 330 331 332 333 329 323 322 322 322 322 326 325 325 323 318 320 320 322 321 318 315 310 308 308 307 311 313 314 314 315 314 312 311 311 311 311 310 309 309 309 309 309 309 309 309 309 308 308 307 307 306 306 305 305 305 305 304 304 304 303 302 302 301 301 300 301 300 301 301 300 300 300 300 301 302 303 303 303 302 302 302 302 303 303 303 303 302 302 301 300 299 296
320 323 326 326 325 327 330 330 329 324 318 317 317 316 316 318 320 323 323 318 318 319 317 317 315 310 307 308 307 308 311 313 313 313 313 312 310 310 311 311 310 309 307 309 309 309 309 309 308 308 308 307 306 306 305 305 304 304 304 304 304 304 304 303 303 302 300 300 299 298 298 298 298 299 299 298 297 297 298 300 301 301 301 302 301 300 300 301 301 302 302 301 301 300 298 297 295
323 327 325 324 326 327 328 327 324 320 317 317 315 314 315 317 319 320 320 317 317 318 317 315 314 310 308 308 306 308 311 312 312 312 311 310 309 310 311 310 310 308 307 308 309 309 308 308 308 307 307 306 305 305 305 304 304 304 304 304 304 304 304 303 303 302 300 299 297 296 295 295 296 297 298 298 296 295 296 297 298 299 300 301 300 299 299 299 299 300 300 300 300 299 297 296 295
323 327 323 325 331 327 323 323 323 321 318 317 315 314 316 318 317 316 317 316 316 317 316 313 311 309 307 306 305 308 310 311 311 310 308 307 308 309 309 309 309 308 307 308 309 308 308 307 307 306 306 305 303 303 303 303 302 301 301 301 301 302 302 302 301 301 298 297 296 294 295 296 297 298 298 298 297 296 295 294 295 297 298 299 299 299 298 297 298 299 299 299 299 298 297 296 296
321 324 319 324 331 324 321 322 323 322 317 316 317 315 316 316 315 316 316 315 315 315 313 309 308 308 306 305 306 308 309 310 309 305 304 305 307 308 308 308 308 307 307 308 308 307 307 307 306 304 302 299 297 296 297 297 296 297 297 296 296 296 296 296 297 297 296 296 296 295 297 299 299 300 299 298 297 296 295 294 294 296 297 298 298 298 297 297 297 298 298 298 297 297 297 296 295
319 324 319 321 325 322 324 320 319 320 315 315 316 315 316 316 316 316 315 315 312 309 309 306 306 308 307 305 305 307 309 308 304 301 303 305 307 308 308 307 307 307 306 307 307 306 306 305 303 302 299 297 297 298 297 295 295 298 299 297 295 294 294 294 294 296 296 296 297 296 297 298 298 300 300 298 296 296 295 294 294 295 296 297 297 297 296 296 297 297 297 297 297 296 296 295 293
319 327 321 320 323 321 323 319 316 317 313 314 314 314 318 316 317 316 313 314 308 302 304 304 304 306 305 305 305 307 308 304 301 300 302 305 306 307 307 307 307 307 306 307 306 306 306 304 302 303 302 302 303 303 301 298 298 300 300 298 296 296 296 296 296 296 297 297 298 297 296 297 297 298 300 297 295 296 295 295 295 295 296 296 296 296 296 296 297 297 297 297 296 295 295 294 291
324 329 320 317 323 321 320 315 313 314 313 315 311 311 317 316 316 314 309 307 304 301 302 302 302 303 303 304 306 307 305 301 300 300 301 303 304 304 305 306 306 306 306 306 306 307 306 304 304 304 304 304 303 302 300 299 300 300 299 297 296 297 297 297 297 297 297 297 297 296 296 296 296 297 297 296 295 295 295 295 294 295 296 297 296 295 295 296 296 296 296 296 296 295 294 292 291
325 324 316 316 321 318 316 311 310 312 310 311 308 307 310 310 312 311 305 302 302 302 301 301 301 302 303 304 307 306 303 301 301 300 299 300 301 301 301 303 304 304 303 303 304 304 304 304 303 302 302 302 301 300 298 298 298 299 298 297 297 297 297 297 297 296 295 295 296 296 295 295 296 296 295 295 295 294 294 294 294 294 296 296 296 295 294 295 296 295 295 295 295 294 292 291 291
321 319 315 322 323 313 310 308 308 310 308 307 305 304 303 303 306 306 302 300 301 301 301 301 301 301 303 304 306 305 303 303 301 300 299 299 299 299 299 299 300 300 300 299 298 299 300 301 301 300 299 298 297 297 296 296 296 296 297 296 297 297 297 296 296 294 294 294 294 294 294 294 295 294 294 294 294 294 293 293 293 293 294 294 294 293 293 293 294 293 293 293 293 292 291 291 291
318 316 315 325 321 308 306 307 308 308 307 307 303 301 301 300 303 303 301 300 300 300 301 302 301 301 302 303 305 306 304 304 302 300 299 298 298 298 298 298 297 297 296 296 296 296 296 297 297 297 296 296 295 295 296 295 295 296 296 296 295 295 295 295 294 292 292 293 293 293 293 293 293 293 293 293 293 293 292 292 292 292 292 292 292 292 292 292 292 292 291 291 291 291 291 291 290
313 313 318 323 316 308 306 306 307 307 307 306 303 301 300 299 300 300 301 301 300 299 300 301 301 301 302 302 301 302 301 299 299 298 298 297 297 297 296 296 295 294 294 295 295 295 295 295 295 295 295 295 295 295 295 295 295 295 295 294 294 293 293 293 293 291 290 291 292 292 292 292 292 292 291 291 291 291 291 291 292 291 292 291 291 291 291 291 291 291 291 290 290 290 290 290 290
312 314 318 316 310 308 305 305 306 306 306 305 303 302 301 300 299 299 299 300 299 299 299 299 300 300 300 299 298 297 296 296 296 296 296 296 295 295 294 293 293 292 293 292 292 293 294 295 295 295 295 295 294 294 294 294 294 293 293 293 292 292 292 292 292 290 290 290 290 290 290 290 291 290 289 288 289 288 289 291 291 291 291 291 291 291 291 291 291 291 290 290 289 290 290 290 290
312 314 313 309 308 307 304 304 305 304 304 303 302 301 300 299 298 298 298 298 297 297 297 297 297 297 297 297 296 296 295 294 294 293 293 293 293 293 292 291 291 290 290 290 290 291 292 292 293 293 293 293 293 293 293 293 292 292 292 292 291 291 291 291 291 290 290 289 289 289 288 288 288 288 287 287 287 286 287 290 291 291 291 291 291 291 291 291 291 290 290 289 289 290 290 290 290
313 314 311 306 306 305 303 304 303 303 302 301 301 300 300 299 298 298 297 296 296 295 295 295 294 294 294 294 294 294 294 293 292 292 291 290 290 290 290 289 289 289 289 289 289 289 290 290 291 291 291 291 292 292 292 292 291 291 291 291 291 290 290 290 290 289 289 289 288 288 287 287 287 287 286 285 285 285 286 289 290 290 290 290 290 291 290 290 290 290 290 289 289 290 290 290 290
313 312 311 306 304 303 303 304 303 302 301 300 300 299 299 298 297 297 296 295 295 294 294 293 293 292 292 292 292 292 292 292 291 290 289 289 288 288 288 288 288 288 288 288 288 288 288 289 289 289 289 290 290 290 291 291 290 290 290 290 290 289 289 289 289 288 288 288 287 287 287 286 285 285 285 284 284 284 285 287 289 289 289 290 290 290 290 290 290 290 289 289 290 290 290 290 290
313 311 310 306 304 304 303 304 303 301 301 300 299 299 299 298 298 296 295 295 294 294 293 292 292 291 290 290 290 290 289 289 289 289 289 288 288 288 287 287 287 287 287 287 288 288 288 288 288 288 288 288 289 289 289 289 289 289 289 289 288 288 288 287 287 287 287 287 287 286 286 285 284 284 284 283 282 283 284 286 288 288 288 288 289 289 289 290 289 289 288 289 289 289 289 289 289
312 311 311 307 305 306 304 303 302 301 300 299 299 298 299 298 298 296 295 295 293 292 292 291 290 290 289 289 289 288 288 288 288 288 288 288 288 287 287 287 287 287 287 287 287 287 288 288 288 288 288 288 288 287 287 286 286 287 287 287 287 287 286 286 286 286 286 286 286 285 285 284 283 282 282 281 281 282 283 285 286 286 287 286 287 288 288 289 288 287 287 288 288 288 289 289 289
310 312 313 309 306 305 304 303 302 301 300 300 299 298 298 298 297 295 295 294 293 292 291 290 289 289 289 289 288 288 288 288 287 287 287 287 287 287 287 286 286 286 286 286 286 286 287 287 287 287 287 287 287 286 286 285 285 285 285 286 286 285 285 285 285 285 284 284 285 285 285 284 282 281 280 279 280 280 282 283 284 285 285 285 285 286 286 286 286 285 286 287 287 288 288 288 289
309 312 314 308 307 307 305 305 304 302 301 301 304 302 298 297 296 295 295 293 292 291 290 290 289 288 288 288 288 288 288 287 287 287 287 287 287 286 286 286 285 285 285 285 286 286 286 285 285 286 286 286 286 285 285 285 284 284 284 284 284 284 284 284 284 284 284 283 283 284 283 282 280 279 278 278 279 279 280 282 282 283 283 283 284 284 285 284 284 285 286 286 286 287 287 288 288
308 312 315 311 312 311 305 306 305 303 302 302 309 306 298 297 296 296 295 293 292 291 290 289 289 288 288 288 288 288 288 287 287 287 287 286 286 286 286 285 285 284 284 285 285 285 285 285 285 285 285 285 284 284 284 284 284 283 283 283 283 283 283 283 283 283 283 282 282 281 280 279 279 278 277 278 279 278 280 281 281 282 282 283 283 284 284 284 284 284 284 285 285 286 286 286 286
310 313 319 318 316 310 305 308 306 303 302 302 306 302 298 297 296 296 295 293 292 291 290 289 289 288 288 288 287 287 287 287 287 287 287 286 286 285 285 285 284 284 284 284 284 284 284 285 285 284 284 284 284 284 283 283 283 283 282 282 282 282 282 282 282 282 282 281 280 279 278 278 278 277 277 278 278 278 280 280 280 281 281 282 282 283 283 283 283 282 283 283 283 284 284 284 284
314 315 320 322 315 308 306 306 306 304 301 300 305 301 297 297 296 295 294 293 292 291 290 289 289 288 288 287 287 287 287 287 287 287 286 286 285 285 285 284 284 284 283 283 283 283 283 283 284 284 284 283 283 283 283 282 282 282 282 281 281 281 281 281 281 281 281 280 279 278 277 277 278 276 276 278 278 278 280 280 280 279 279 280 280 280 280 280 280 280 281 281 281 281 281 282 282
320 314 315 316 312 309 308 304 302 304 302 301 304 301 297 297 296 295 294 293 292 291 290 290 289 288 288 287 287 287 287 287 287 287 286 286 285 285 284 284 284 284 283 283 283 283 283 283 283 284 283 283 283 283 282 282 282 281 281 280 280 280 279 280 280 280 279 279 278 277 276 277 277 276 276 277 278 278 279 279 278 278 278 278 277 277 277 277 278 278 278 278 278 279 279 279 279
321 318 317 315 312 311 311 305 299 301 301 299 299 298 297 296 296 295 294 293 291 291 290 289 289 288 288 288 287 287 287 287 286 286 286 285 285 285 284 284 284 284 284 283 283 282 282 282 283 283 283 283 282 282 282 282 281 281 280 280 279 279 279 279 279 279 278 278 277 276 275 275 275 275 275 276 277 277 277 277 276 276 276 276 275 276 276 276 276 276 276 276 277 277 277 277 277
313 315 316 316 314 310 310 308 301 299 299 298 297 297 297 296 295 295 294 293 292 291 290 289 289 288 288 288 287 287 287 287 286 286 286 286 285 284 284 284 283 283 283 283 283 282 282 282 282 282 282 282 282 281 281 281 280 280 279 279 278 278 278 278 277 278 278 278 277 275 275 275 274 274 275 275 276 276 276 275 275 274 274 274 274 274 274 275 275 275 275 275 275 275 275 275 275
309 311 311 314 313 308 307 306 300 298 298 298 298 297 297 296 296 295 294 293 292 291 290 290 289 289 288 288 288 287 287 287 287 286 286 286 285 284 284 283 283 283 282 283 283 283 282 281 281 281 281 281 281 281 280 279 279 279 278 278 278 277 278 277 277 277 277 277 276 275 274 274 274 274 274 275 275 276 275 275 274 273 273 273 273 274 273 274 274 274 274 274 274 274 274 274 274
310 313 314 313 312 308 306 303 299 300 300 298 297 297 296 296 296 295 294 293 292 292 291 290 290 289 289 288 288 288 288 287 287 286 286 285 285 284 284 283 283 283 282 282 282 282 282 281 281 280 280 280 279 279 279 278 278 278 277 277 277 277 277 277 276 277 277 276 275 274 274 274 274 274 274 275 275 275 275 274 274 273 273 272 272 272 272 272 273 273 273 273 273 273 273 273 273
312 314 315 313 311 308 306 303 300 300 301 298 297 297 296 296 296 295 295 294 293 292 291 290 290 290 289 289 289 288 288 287 287 287 286 285 285 284 284 283 283 282 282 282 281 281 281 280 280 279 279 279 278 278 278 277 277 277 276 276 276 276 277 276 276 276 276 275 274 274 274 274 273 274 274 274 275 275 275 274 274 273 273 272 271 271 271 271 272 272 272 272 273 272 272 272 273
313 313 316 314 310 309 308 305 301 299 300 298 296 297 296 295 295 295 295 294 293 293 292 291 290 290 290 289 289 289 288 288 287 286 286 285 284 284 283 283 282 282 281 281 281 281 280 280 279 279 279 279 278 277 277 276 276 276 276 276 276 276 276 276 276 276 275 274 274 273 274 273 273 273 274 274 275 275 274 274 273 273 272 272 271 270 271 271 271 271 272 271 272 272 272 272 272
310 309 311 310 307 309 309 305 301 300 299 297 296 296 296 295 295 295 295 294 294 294 293 292 292 291 290 290 290 289 289 288 287 286 286 285 284 284 283 282 282 281 281 281 281 280 280 280 279 279 278 278 278 277 276 276 275 275 275 275 275 275 275 275 275 275 274 274 273 273 273 273 273 273 273 274 274 275 274 274 273 273 272 271 270 270 270 270 271 271 271 271 271 271 271 271 271
310 308 307 307 306 307 307 304 301 300 298 296 298 300 297 296 296 295 294 294 294 294 294 293 293 292 291 291 290 290 289 289 288 287 285 285 284 284 283 283 282 281 281 280 280 280 279 279 279 278 278 278 277 277 276 275 275 275 274 274 275 275 275 274 274 274 273 273 272 272 272 272 272 273 273 273 274 274 273 273 273 272 272 271 270 269 270 270 270 270 270 270 270 271 271 271 270
312 307 305 306 305 304 307 307 304 303 302 299 303 308 302 297 297 296 294 294 294 294 294 293 293 293 292 292 291 291 290 289 289 287 286 285 284 283 283 282 282 282 281 280 280 280 279 279 278 278 278 277 277 277 276 275 275 274 274 273 274 275 274 274 273 273 272 272 272 272 272 272 272 272 272 272 273 273 273 273 272 272 271 270 270 269 269 269 269 269 269 269 269 270 270 270 270
311 306 307 308 305 305 307 308 307 308 309 304 303 309 307 299 298 297 295 295 294 294 294 293 293 293 293 292 291 291 291 290 289 288 286 285 284 284 283 283 282 282 281 280 280 279 279 279 278 278 277 277 276 276 276 275 275 274 273 273 273 274 274 273 273 272 272 272 271 271 271 271 271 272 272 272 272 272 272 272 271 271 271 270 269 269 269 269 269 269 269 269 269 269 269 269 269
307 305 308 307 304 305 307 308 309 310 310 306 302 306 310 305 300 298 297 297 295 295 294 293 292 292 292 292 292 291 291 291 290 288 286 285 285 285 284 283 283 282 281 280 279 279 279 279 278 277 277 277 276 276 276 275 274 273 272 272 273 273 273 273 272 271 271 271 271 271 271 271 271 271 271 271 271 272 272 271 271 271 270 270 269 268 268 268 268 268 268 268 268 268 268 268 268
308 308 306 305 304 305 307 309 309 309 310 307 302 304 309 307 301 297 297 297 296 296 295 294 293 293 293 293 292 292 291 291 290 288 287 286 287 286 285 284 283 282 281 280 279 279 279 279 278 277 276 276 276 275 275 274 274 273 272 272 272 273 273 272 272 271 271 271 270 270 270 270 270 270 270 270 270 271 271 271 270 270 270 269 269 268 268 267 267 267 267 267 267 267 267 268 268
309 308 304 305 307 306 309 309 307 309 311 308 302 304 309 307 300 297 297 298 297 296 295 295 295 294 294 293 293 293 292 291 289 289 289 288 288 287 286 284 283 282 281 280 280 279 279 279 277 276 276 276 275 275 274 274 273 273 272 272 272 272 272 272 271 271 270 270 270 270 270 270 270 269 269 270 270 270 270 270 270 270 269 269 268 267 267 267 267 267 267 267 267 267 267 267 267
306 306 304 307 309 307 307 307 308 308 309 307 304 304 306 307 302 298 298 299 299 297 295 295 295 294 294 293 293 292 292 292 289 289 290 289 288 287 286 284 283 282 281 280 280 279 279 278 277 276 276 275 275 275 274 274 273 273 272 271 271 271 272 271 271 271 270 270 269 269 269 269 269 269 269 269 269 269 269 269 269 269 269 268 268 267 267 266 266 266 266 266 266 266 266 267 267
302 301 302 304 306 308 308 310 312 310 307 307 306 302 302 307 306 300 298 299 300 299 297 295 295 295 294 293 293 292 292 293 291 289 290 289 288 286 285 284 283 282 280 280 280 279 278 277 276 276 275 275 274 274 274 274 273 272 271 271 271 271 271 271 271 270 270 269 269 269 269 269 268 268 268 268 268 268 268 268 268 268 268 268 267 267 266 266 266 266 266 266 266 266 266 266 266
301 299 304 308 308 309 309 310 310 306 305 304 301 300 301 305 307 301 299 299 298 298 297 296 295 295 295 294 294 294 293 294 293 290 289 289 288 287 285 284 283 281 280 280 280 279 278 277 276 276 275 275 274 274 274 273 273 272 271 271 270 271 271 271 270 270 269 269 269 269 268 268 268 268 268 268 268 268 268 268 268 268 267 267 266 266 266 266 266 266 266 265 265 265 266 266 266
302 300 305 312 311 306 304 305 305 305 305 302 299 300 301 303 303 299 299 299 298 298 296 295 295 294 295 295 295 295 294 294 293 289 288 289 288 288 286 285 283 282 281 281 280 278 277 277 276 275 275 275 274 273 273 273 272 272 271 271 270 270 270 270 270 269 269 269 268 268 268 268 268 268 268 267 267 267 267 267 267 267 267 266 266 266 266 266 265 265 265 265 265 265 265 265 265
304 301 304 310 308 304 303 303 304 306 306 302 301 300 302 305 301 296 297 298 297 297 295 295 295 295 296 296 295 295 295 294 293 289 287 288 288 287 287 285 284 282 281 280 279 278 278 277 276 275 275 275 274 273 273 272 272 271 271 270 270 270 270 270 270 269 269 268 268 268 268 268 267 267 267 267 267 267 267 267 267 267 266 266 265 265 265 265 265 265 265 265 265 265 265 265 265
302 301 302 304 302 303 306 305 304 305 304 305 306 302 301 301 296 293 296 296 295 296 295 295 295 295 295 295 294 294 293 293 293 291 288 287 287 287 286 285 284 282 281 280 279 278 278 277 276 276 275 274 274 273 272 272 272 271 271 270 270 270 270 270 269 269 268 268 268 268 267 267 267 267 267 267 266 266 266 266 266 266 266 265 265 265 265 265 265 265 265 264 264 264 264 264 264
300 301 299 299 300 303 305 305 304 302 299 301 303 300 299 298 295 294 294 295 295 295 295 295 294 294 294 294 293 293 292 292 293 291 288 287 287 286 285 284 283 282 281 279 279 279 279 277 276 275 275 274 273 273 272 272 271 271 271 270 270 269 269 269 269 269 268 268 268 267 267 267 267 267 266 266 266 266 266 266 266 265 265 265 265 265 265 265 264 264 264 264 264 264 264 264 264
301 302 299 299 301 303 302 302 304 302 297 299 300 298 299 300 297 295 293 294 295 294 294 294 293 293 293 292 292 292 293 293 291 289 287 287 286 285 285 284 283 282 281 280 279 279 278 277 276 275 274 274 273 272 272 271 271 271 270 270 269 269 269 269 269 268 268 268 267 267 267 267 266 266 266 266 266 266 266 265 265 265 265 265 264 264 264 264 264 264 264 264 264 264 264 264 264
301 301 300 300 302 303 302 300 301 300 296 299 302 299 298 301 301 299 296 294 293 293 293 292 292 292 291 292 292 292 293 293 291 289 286 285 285 285 284 283 282 282 281 280 279 279 278 276 275 274 274 273 273 272 272 271 271 271 270 270 269 269 269 269 268 268 268 267 267 267 267 266 266 266 266 266 265 265 265 265 265 264 264 264 264 264 264 264 264 263 263 263 263 263 263 263 263
302 302 302 303 303 302 302 300 300 300 297 298 302 301 299 303 305 303 302 296 292 293 293 291 292 292 292 293 293 293 293 291 292 291 287 285 285 285 284 283 282 281 280 280 279 278 277 275 274 274 273 273 272 272 272 271 271 270 270 270 269 269 268 268 268 268 267 267 267 267 266 266 266 266 265 265 265 265 265 264 264 264 264 264 264 263 263 263 263 263 263 263 263 263 263 263 263
301 304 303 304 304 301 300 299 300 300 298 298 298 298 299 301 301 301 302 298 293 293 293 292 292 292 293 294 293 293 293 292 292 290 286 284 285 284 283 283 282 281 280 279 278 277 276 275 274 274 273 273 272 272 271 271 271 270 270 269 269 268 268 268 268 267 267 267 267 266 266 266 266 265 265 265 265 264 264 264 264 264 263 263 263 263 263 263 262 262 262 262 262 262 262 262 262
297 301 301 301 302 301 298 299 300 299 298 298 296 294 297 298 297 298 300 297 294 294 295 294 294 294 293 293 293 293 292 292 291 287 284 283 284 283 283 282 282 281 280 278 278 277 276 275 275 274 273 273 272 272 271 271 270 270 270 269 269 268 268 268 267 267 267 267 266 266 266 266 265 265 265 264 264 264 264 264 264 263 263 263 263 263 262 262 262 262 262 262 262 262 262 262 262
Wind_Speed
5 3 2 2 2 2 3 1 1 2 1 1 2 2 2 1 2 2 1 4 3 1 1 2 3 3 4 5 9 8 3 1 0 1 0 4 18 20 18 26 26 25 24 20 18 16 15 13 12 12 12 12 13 13 13 14 14 14 14 14 14 14 14 14 14 14 14 14 14 14 14 13 14 14 13 14 14 14 14 14 14 14 14 14 14 14 14 14 14 14 14 14 14 13 14 15 15
5 5 3 2 3 1 2 1 2 2 1 2 3 2 2 3 2 1 3 3 2 2 2 4 4 5 7 8 8 7 5 3 3 2 3 13 20 15 21 28 26 25 24 21 18 16 15 13 13 13 13 13 13 13 14 14 14 14 14 15 15 15 14 15 14 15 15 14 14 14 14 14 14 14 14 14 15 15 15 14 14 14 14 14 14 14 14 14 13 14 14 14 14 13 13 14 15
6 5 3 1 3 2 1 2 1 0 1 2 3 3 1 3 2 3 4 2 3 3 4 3 4 3 5 8 4 5 2 0 5 4 5 17 16 12 24 28 25 24 23 21 18 17 15 13 13 13 13 14 14 14 14 14 14 14 15 15 15 15 15 14 14 14 14 14 14 14 14 14 14 14 14 15 15 15 15 15 15 15 14 14 14 14 14 14 13 13 13 14 14 13 13 14 15
6 4 3 1 0 0 2 2 1 1 1 2 3 3 1 0 4 4 4 3 3 2 2 1 3 2 5 8 3 5 3 1 5 6 6 15 15 18 26 26 24 23 22 21 18 17 16 14 13 14 14 14 14 14 14 14 14 14 14 14 14 14 14 14 13 14 14 14 14 14 14 14 13 13 14 14 14 14 14 15 14 14 14 14 14 14 14 14 14 14 14 14 14 14 13 14 15
5 3 3 1 1 1 1 0 1 2 2 3 3 4 2 4 7 5 4 2 0 2 1 2 3 2 5 6 2 3 2 3 7 8 10 15 19 23 25 24 24 23 23 21 18 17 16 15 14 14 14 14 14 13 13 14 13 13 14 13 13 13 13 13 13 13 13 13 13 13 13 13 13 13 13 13 13 14 14 14 14 14 14 14 14 14 14 14 14 14 14 14 14 13 13 14 15
6 3 3 1 1 1 1 1 2 3 5 5 4 4 5 6 8 7 4 1 2 3 3 2 3 4 5 4 4 4 1 5 7 8 15 20 22 24 23 23 24 24 24 20 19 19 18 16 14 14 14 13 13 13 13 14 13 13 13 13 13 13 13 13 13 12 12 12 13 13 13 13 13 13 13 13 13 13 13 14 14 14 14 14 14 14 14 14 14 14 13 13 13 12 13 14 14
8 4 3 3 2 1 1 3 4 4 6 7 4 3 6 6 7 7 6 2 3 3 3 2 4 8 3 1 4 9 6 9 10 12 21 25 23 22 24 25 26 26 24 22 22 21 19 16 16 15 14 14 13 13 13 13 14 13 13 13 13 13 13 13 13 12 12 12 13 13 13 13 13 13 13 13 13 13 13 13 13 13 14 14 14 14 14 14 14 14 13 13 12 12 13 13 14
5 2 1 2 0 0 2 3 4 5 5 3 1 4 6 7 8 6 6 3 2 1 3 1 3 7 3 4 4 9 14 15 16 21 26 26 22 23 26 27 28 27 24 24 24 21 19 17 16 15 15 14 14 14 13 13 13 13 13 13 13 13 13 13 13 13 13 13 13 13 13 13 13 13 13 13 13 13 12 12 13 12 12 13 13 13 13 13 13 12 12 12 11 11 13 13 14
1 0 1 2 2 1 1 3 4 6 3 3 4 3 3 4 4 5 5 3 4 2 1 2 3 6 3 8 5 4 14 19 23 26 26 24 23 25 26 27 29 28 26 25 24 21 19 18 16 15 15 15 15 15 14 14 13 13 13 13 13 13 14 14 13 13 13 13 13 12 12 12 12 12 12 12 12 12 12 11 11 11 11 12 12 12 12 12 12 11 11 11 11 12 13 14 15
3 2 2 1 1 1 3 3 4 3 3 4 4 3 2 0 2 5 7 6 6 4 0 1 6 7 6 7 4 3 11 20 25 24 23 22 22 23 24 26 27 27 27 26 24 21 19 17 16 16 15 15 15 15 14 14 14 13 13 13 13 13 13 13 13 13 13 12 12 11 11 10 10 11 11 11 11 11 11 11 11 11 11 11 11 12 12 12 12 11 11 11 12 13 14 15 16
2 3 2 1 1 1 3 4 5 2 2 2 3 3 1 1 2 5 7 6 5 6 2 2 7 7 8 5 2 8 17 20 22 22 21 21 21 22 23 25 25 25 26 26 23 20 19 18 17 17 16 16 15 15 15 14 14 14 14 13 13 12 12 12 12 11 11 10 9 9 8 8 8 9 10 10 11 12 11 11 11 11 11 11 12 12 13 13 12 12 12 13 13 14 15 16 16
1 2 2 1 2 3 4 4 4 2 2 3 3 4 2 4 6 4 6 6 4 6 2 2 3 5 7 3 2 12 18 18 20 20 20 22 23 22 22 24 23 22 24 25 23 20 19 19 19 18 18 17 17 16 15 15 14 14 13 13 12 11 11 10 9 8 8 8 8 8 8 8 8 8 9 10 11 13 14 13 12 12 12 12 13 13 14 14 14 13 13 14 14 15 16 16 16
1 2 3 2 3 3 3 3 4 2 3 2 1 4 4 6 6 3 6 7 5 7 3 6 1 8 6 2 5 9 14 17 19 19 22 24 23 24 24 23 22 21 23 25 22 20 20 20 20 19 18 17 17 16 14 14 13 12 12 11 11 10 9 8 7 6 7 7 8 10 10 10 10 9 9 9 11 15 17 18 15 14 14 14 14 14 15 15 15 14 14 14 15 15 16 16 15
2 1 3 2 1 0 2 3 3 3 2 3 2 3 4 4 4 5 7 9 9 4 2 7 5 11 7 4 5 4 11 18 18 21 25 25 24 27 26 24 22 22 23 23 21 20 19 18 17 17 15 14 13 12 12 11 11 11 11 10 10 10 9 8 7 8 10 10 12 13 12 13 12 10 10 9 11 16 20 20 18 16 15 15 14 15 16 16 15 14 15 15 15 16 16 16 15
3 0 3 0 3 2 2 2 2 4 2 3 1 2 5 3 3 7 7 7 8 6 4 12 9 7 3 4 5 5 14 19 20 25 26 26 27 28 26 26 24 21 21 21 19 17 15 14 12 12 11 11 10 11 12 12 11 11 12 12 12 12 12 11 10 12 13 13 14 15 14 15 14 10 9 9 13 18 21 20 19 17 15 15 14 15 17 17 15 14 15 15 15 16 16 15 14
3 2 4 2 2 2 2 2 2 5 1 3 2 3 7 5 4 6 6 5 8 12 11 11 10 6 4 5 11 15 21 22 25 27 27 28 28 27 26 27 24 21 21 20 18 15 12 10 10 10 9 10 11 11 13 13 12 12 12 14 14 14 14 13 12 13 12 12 13 14 15 15 13 11 8 11 16 19 19 19 19 17 15 14 14 15 17 17 14 14 15 15 15 16 15 14 16
4 4 3 2 1 1 2 1 2 4 1 2 5 5 7 4 5 5 10 14 12 13 14 10 12 12 9 11 18 23 25 25 27 27 26 27 25 25 24 24 22 21 20 19 18 15 12 11 11 10 10 11 11 12 13 14 13 12 13 14 14 14 15 13 10 10 10 10 11 12 15 16 15 15 12 13 16 17 18 18 18 17 15 14 14 15 16 16 13 13 15 15 15 15 15 15 18
5 3 2 2 1 2 2 1 1 5 3 3 7 8 10 5 5 4 10 15 13 14 13 10 14 15 16 19 23 25 26 26 25 25 24 24 23 22 22 21 20 19 18 18 17 14 14 15 15 15 14 13 13 13 14 15 13 13 13 14 14 13 13 11 9 10 10 11 11 12 16 16 15 15 15 14 13 14 16 16 16 16 15 14 14 15 15 14 12 13 15 16 15 15 16 17 17
3 3 2 3 3 0 2 4 3 5 5 6 10 12 14 8 5 6 8 12 15 15 10 8 12 12 15 19 22 24 24 23 22 23 23 22 22 21 21 19 19 19 18 19 20 18 17 17 16 17 17 14 14 15 14 14 14 14 15 16 17 15 13 12 12 12 12 13 15 15 17 16 14 14 13 12 11 11 13 14 15 15 15 14 14 15 14 12 12 14 15 15 15 15 17 18 18
2 3 2 6 4 3 6 6 5 4 6 10 10 13 17 13 8 4 7 13 16 13 8 6 9 8 9 12 17 19 18 18 18 20 20 20 20 20 21 19 20 22 23 23 24 23 20 17 15 14 15 15 16 16 15 15 15 16 19 19 19 19 17 16 16 15 13 14 16 17 18 16 14 12 11 11 11 11 12 13 15 15 14 15 15 15 14 13 14 15 14 14 15 16 17 18 18
1 4 4 7 3 5 5 5 5 5 7 10 9 13 16 13 13 8 8 13 12 10 9 8 7 8 7 8 13 17 18 20 22 22 21 23 23 23 24 25 27 28 30 31 29 28 25 22 20 18 19 21 22 21 21 20 19 21 22 22 22 22 21 19 17 17 16 16 16 16 16 15 13 13 13 12 12 12 12 12 14 15 14 14 15 15 15 14 14 13 12 14 16 16 17 17 17
1 3 6 4 2 6 2 4 6 6 9 11 11 12 9 9 14 13 16 14 7 8 11 13 12 11 11 13 19 24 26 27 29 29 28 29 29 28 28 29 32 33 34 34 34 33 31 29 27 26 27 27 28 27 26 25 24 25 25 24 24 24 23 21 19 18 18 17 17 17 16 15 14 13 15 15 14 15 13 11 13 15 15 13 14 16 16 14 14 13 12 17 18 16 16 16 16
2 3 0 4 6 7 1 4 7 9 13 13 11 10 9 14 14 13 19 15 9 12 15 18 19 20 23 23 24 25 26 28 29 29 30 31 30 29 29 30 32 33 35 35 35 35 34 33 32 30 30 29 29 28 27 27 26 26 26 25 24 24 24 23 21 19 18 18 18 18 18 17 15 14 15 16 16 16 13 11 12 15 15 14 15 16 14 12 12 13 14 20 19 14 16 17 17
4 2 2 7 9 8 4 6 9 14 17 12 13 13 14 18 13 12 18 15 13 17 21 23 25 29 31 27 25 24 25 27 28 29 31 31 31 30 30 31 31 33 36 35 35 36 35 34 32 32 31 30 29 27 27 27 26 25 24 24 23 22 21 22 21 19 18 18 18 18 18 18 16 15 16 17 17 16 13 11 12 14 14 14 15 14 12 11 12 13 17 20 18 15 18 18 19
4 0 2 6 8 6 7 9 13 17 14 12 19 18 14 16 15 14 16 14 14 18 22 24 25 29 27 24 23 24 25 26 27 29 30 30 32 34 33 32 32 35 34 33 34 35 34 33 32 32 31 30 28 26 26 25 24 24 23 22 21 19 18 18 17 18 18 17 17 18 19 19 18 17 18 19 19 17 13 11 12 14 15 15 15 14 14 14 14 15 18 18 18 19 20 20 21
1 2 2 6 6 5 8 9 13 13 9 15 22 17 10 9 12 14 13 12 14 18 20 19 21 22 19 18 21 23 24 25 25 26 27 29 32 34 33 32 34 33 31 31 33 33 32 31 31 31 29 28 27 26 26 24 23 22 21 20 19 18 17 15 14 15 16 16 17 18 18 19 20 19 19 21 20 17 13 12 12 13 15 16 17 17 17 17 18 19 20 18 19 21 21 21 22
2 4 4 7 6 4 8 11 15 13 10 18 22 15 12 8 9 10 8 10 14 19 18 15 18 17 15 16 20 23 24 23 24 25 27 28 29 30 29 31 33 31 30 31 30 29 30 30 30 28 27 26 25 25 25 24 23 22 20 18 18 16 15 15 13 13 14 15 16 17 17 19 21 20 20 21 19 16 13 13 13 13 15 17 18 19 19 20 21 21 21 20 20 21 21 20 20
2 5 6 7 8 7 8 12 13 11 9 16 22 18 16 13 12 10 7 10 15 18 16 15 16 14 13 15 17 21 22 22 24 26 26 25 25 26 27 28 30 30 30 29 26 27 28 28 28 27 26 25 24 24 23 22 21 20 19 18 18 17 16 15 14 12 13 14 15 17 17 20 22 20 20 19 17 15 13 13 13 13 16 18 18 19 20 20 20 20 19 19 20 20 20 19 18
4 6 6 5 8 8 6 4 8 9 6 8 14 16 15 12 11 11 9 11 15 17 15 13 13 11 11 12 14 17 20 21 24 25 23 23 23 25 26 25 26 29 28 27 27 27 27 26 26 26 25 25 24 23 21 21 19 18 18 18 17 17 17 16 14 12 13 14 15 17 18 21 21 19 19 16 15 14 13 13 13 14 16 17 17 18 18 18 17 17 18 19 19 19 20 20 19
2 3 6 4 6 6 6 3 5 9 3 3 7 7 6 9 10 10 8 11 15 16 13 11 10 9 9 9 10 13 17 20 22 22 22 23 24 24 25 23 24 25 25 26 27 27 27 25 25 24 24 24 24 22 21 20 19 18 18 19 16 15 16 15 14 13 14 15 16 18 20 20 19 19 18 15 15 14 12 13 13 14 15 16 16 16 15 14 15 17 18 20 20 20 20 20 21
1 2 3 3 4 2 6 5 5 7 4 7 13 6 2 7 9 9 8 10 16 14 11 10 8 8 8 8 9 9 14 19 20 21 22 23 24 24 24 23 23 23 23 24 24 24 25 25 25 24 23 23 22 22 21 19 19 19 19 20 17 14 15 14 13 13 14 16 17 19 20 19 19 19 17 14 15 13 12 13 13 15 15 15 15 14 13 14 16 18 19 21 21 21 21 22 22
3 3 3 3 4 1 4 8 5 6 5 10 13 7 3 7 8 8 9 11 14 13 9 9 8 8 7 7 8 7 11 17 20 20 20 21 22 23 23 22 22 21 21 21 21 22 22 22 23 23 22 22 21 21 21 18 17 19 20 21 18 15 13 13 13 14 16 17 17 19 18 17 19 19 16 14 14 13 12 13 14 15 16 16 15 15 14 15 17 18 19 20 22 22 23 23 24
4 3 1 2 5 2 2 9 10 6 5 10 9 8 4 5 7 8 9 11 12 11 9 8 8 7 7 6 6 6 7 12 15 17 19 19 20 20 20 20 21 20 20 19 19 20 20 20 20 22 22 21 20 20 20 19 17 17 20 21 20 17 14 12 13 15 16 16 18 20 15 14 18 19 16 14 14 13 13 14 14 15 16 17 17 16 15 16 17 19 19 20 20 22 22 23 24
4 4 2 1 4 3 2 5 10 11 12 10 12 11 7 6 7 8 8 10 10 9 8 7 7 6 6 6 5 5 5 6 9 14 16 18 18 18 18 18 18 19 19 19 18 17 17 17 18 20 20 20 20 19 20 20 18 16 19 21 20 18 15 12 13 15 16 16 19 21 15 13 17 18 17 14 12 13 13 14 14 15 17 17 17 17 16 16 16 18 21 20 20 20 20 21 23
2 2 2 2 3 4 4 3 4 12 15 12 13 11 9 8 7 8 7 8 9 8 7 6 6 6 5 5 5 5 5 5 9 13 15 16 16 16 15 16 16 16 17 17 17 16 15 15 17 18 19 19 20 20 20 21 20 17 18 21 21 19 16 14 13 14 15 16 19 21 15 15 18 17 18 15 12 13 13 13 14 17 18 17 17 17 17 18 18 19 21 21 21 19 19 20 23
3 2 2 0 3 4 5 6 6 13 15 9 11 10 8 7 6 7 7 7 8 7 6 6 5 5 5 4 4 4 4 5 10 14 14 14 14 13 13 14 14 14 13 14 15 15 15 15 16 17 18 19 20 21 22 22 22 20 19 21 22 20 16 16 15 13 14 15 19 19 15 16 18 16 17 16 13 13 13 13 16 19 18 16 17 17 18 18 18 20 20 20 21 19 19 20 21
1 2 3 3 4 3 5 7 6 10 12 6 8 11 8 7 5 5 6 6 7 6 6 5 5 4 4 4 4 5 4 6 11 13 13 13 12 11 11 11 12 12 12 12 13 15 15 14 15 16 17 19 20 21 22 23 22 21 21 21 22 19 16 17 16 13 13 15 18 17 14 17 18 15 15 16 14 13 12 13 17 18 17 16 16 17 18 17 17 19 19 20 19 19 20 20 22
3 3 4 4 4 2 3 7 4 5 10 4 6 11 7 6 5 4 5 5 5 6 6 5 5 5 4 5 5 5 4 7 11 11 11 11 10 9 9 9 10 10 10 10 11 12 13 13 13 14 15 17 20 21 21 22 21 20 19 19 20 18 14 16 15 12 13 16 18 15 14 16 17 15 15 16 15 13 12 14 16 16 16 17 16 17 17 16 17 18 19 21 19 19 19 19 21
6 4 5 3 2 2 4 7 5 5 8 5 5 10 6 4 5 4 4 5 3 4 6 6 6 5 5 5 5 5 5 6 8 9 10 10 9 8 8 8 8 8 8 9 9 10 11 13 12 13 14 16 19 20 20 21 21 19 18 18 18 15 14 14 12 12 14 17 17 15 15 16 16 15 16 16 14 12 13 14 14 14 15 16 17 18 18 17 18 18 19 21 20 20 18 16 18
6 5 5 1 3 3 1 4 6 6 6 9 8 8 5 2 4 3 3 4 4 4 5 4 5 6 6 6 5 6 6 5 5 7 10 10 8 7 6 6 6 6 7 8 8 9 10 12 12 13 13 14 16 19 20 20 21 21 19 19 16 12 13 14 11 13 16 18 17 16 15 16 16 15 15 15 13 13 14 14 13 14 14 15 17 18 17 17 18 18 19 20 20 20 17 16 17
3 4 5 1 1 2 2 3 6 8 8 9 9 7 2 2 3 2 2 3 4 4 5 4 4 4 4 4 5 6 6 6 5 6 9 11 9 7 5 5 4 5 6 6 8 9 9 10 11 12 12 12 14 18 20 21 23 23 22 21 18 13 15 16 14 16 17 18 17 16 16 16 15 14 14 14 14 13 13 12 12 12 12 13 17 17 16 16 17 17 19 19 18 18 17 18 18
3 1 3 4 3 1 2 2 5 6 3 5 5 4 1 2 3 5 4 3 4 4 5 4 4 4 4 4 4 5 5 6 7 8 10 11 10 7 5 3 2 3 3 4 6 7 8 9 10 10 11 11 13 17 19 22 24 24 22 21 18 16 17 16 15 17 18 18 18 17 17 15 15 14 12 13 15 13 11 10 10 11 11 14 17 17 15 15 17 17 17 17 17 17 18 19 18
3 2 5 6 3 2 2 1 3 3 2 5 5 3 1 2 3 6 6 5 5 5 5 7 6 5 5 5 5 5 5 6 7 8 11 11 10 7 4 3 1 1 2 3 4 6 6 9 9 8 10 11 12 16 18 21 24 23 21 18 16 15 16 15 15 17 18 18 18 17 16 15 15 14 13 13 14 13 11 10 10 11 12 15 18 16 15 16 17 17 16 17 18 18 19 18 18
2 4 4 3 3 3 5 4 3 3 1 1 4 4 2 2 4 5 6 5 5 6 6 7 7 6 7 6 6 6 6 5 5 6 9 12 10 8 8 7 5 2 2 1 2 4 5 8 10 9 10 11 13 15 17 20 22 22 21 18 15 15 15 15 16 17 17 17 17 17 16 15 15 14 13 13 14 14 13 12 12 13 14 17 18 16 16 18 18 18 17 17 18 17 17 18 18
6 7 2 5 7 4 6 6 3 2 3 2 2 4 2 3 2 3 5 4 6 8 8 8 8 7 7 6 6 6 6 7 7 7 10 12 12 11 11 9 6 4 2 1 2 3 5 8 10 11 11 11 13 15 16 18 19 20 20 17 16 16 16 17 17 17 17 17 18 18 16 16 16 15 14 13 13 15 16 15 15 15 16 18 17 16 18 19 18 18 18 18 18 17 17 17 18
8 9 6 4 1 3 5 5 3 2 5 1 4 2 2 3 2 3 3 4 7 8 7 7 7 8 8 7 7 7 6 7 9 10 12 13 14 13 12 10 8 6 4 4 4 4 6 8 9 11 12 11 13 14 15 17 18 19 20 18 16 17 17 17 17 18 19 18 19 19 18 18 19 18 16 15 14 15 17 18 17 17 17 17 17 18 20 19 19 19 18 18 18 18 18 16 17
7 7 6 5 5 4 4 2 3 5 2 4 5 1 3 1 3 5 5 5 7 7 6 7 7 8 8 8 8 8 7 6 8 12 13 11 11 13 13 12 10 8 7 7 6 5 7 7 7 9 11 12 12 14 16 17 19 20 20 18 17 17 17 17 18 19 19 19 19 20 19 19 20 20 18 17 16 16 18 19 18 17 17 17 18 20 20 19 19 19 19 19 18 18 18 17 17
5 5 4 5 4 4 4 4 4 5 1 6 6 2 4 2 4 6 6 5 6 8 7 8 9 9 8 8 8 8 7 7 8 10 12 9 9 14 16 14 12 11 10 9 7 6 6 6 7 8 11 12 12 14 17 19 20 19 19 18 17 17 17 17 17 18 18 19 20 19 19 20 21 20 19 19 18 17 19 20 19 18 18 19 20 20 20 19 19 19 19 19 19 18 18 18 18
7 5 5 5 3 5 4 4 3 1 4 5 3 2 2 2 5 5 6 6 5 6 6 8 10 9 8 8 8 7 7 7 7 8 11 11 12 15 16 16 14 14 13 11 8 6 6 7 8 9 11 12 13 15 18 20 20 19 18 18 17 17 18 18 17 18 18 19 19 19 20 21 21 20 19 19 19 19 19 20 20 20 20 21 21 21 19 18 18 19 20 20 19 19 19 19 20
5 4 3 4 2 3 1 3 3 2 5 4 3 2 1 3 4 4 6 7 6 5 4 5 8 9 8 8 7 7 6 7 6 6 9 12 12 12 13 15 16 15 14 11 8 7 6 8 9 9 11 13 13 16 18 19 19 19 19 18 17 18 19 19 17 17 17 18 18 20 21 21 20 20 20 20 20 20 19 20 20 21 22 22 22 20 19 19 19 20 20 19 19 19 20 20 21
3 1 4 4 4 4 2 2 1 3 5 5 4 1 3 3 3 3 5 5 4 4 3 2 4 6 6 6 6 6 7 6 6 6 9 12 11 10 12 15 17 17 15 11 9 9 8 10 11 11 12 13 14 16 18 19 19 20 20 19 18 19 19 19 17 17 17 18 19 20 21 20 20 20 20 21 21 20 20 21 21 22 22 22 21 20 20 21 20 20 19 20 20 21 21 22 22
3 2 5 2 2 4 2 3 5 3 3 5 3 1 4 3 3 4 2 3 3 4 4 3 4 6 5 5 6 6 6 6 6 5 8 11 12 12 14 16 17 16 13 11 11 10 10 12 13 13 13 13 14 16 17 18 20 21 20 19 19 19 19 19 18 18 18 18 19 20 21 21 20 20 22 22 21 21 21 21 22 22 22 21 21 21 22 21 20 20 21 22 22 22 22 22 22
2 3 2 3 3 6 3 2 2 3 2 3 2 1 3 2 3 4 2 3 4 5 5 6 7 7 6 6 7 7 7 6 6 6 9 13 14 15 16 16 16 14 13 13 12 11 12 14 14 13 12 12 14 16 17 18 20 20 19 19 19 19 19 19 19 19 19 19 20 21 21 21 21 22 23 22 22 21 21 22 23 23 22 22 21 21 21 21 21 22 22 22 22 22 22 23 22
3 1 2 2 1 4 3 1 4 4 1 4 3 3 4 2 2 3 3 6 7 7 7 8 8 8 8 8 7 7 7 6 6 8 12 15 15 16 16 15 16 15 14 14 12 12 13 14 14 12 11 12 14 16 17 18 19 19 19 19 19 19 20 20 20 20 20 20 21 21 21 22 23 23 23 22 22 22 23 23 23 22 22 21 22 22 22 22 22 22 22 22 22 22 23 23 23
4 2 1 3 3 1 1 1 1 2 2 4 5 4 3 3 3 3 6 10 10 9 8 9 9 9 8 8 7 7 6 6 6 7 10 12 12 14 16 16 17 16 15 14 12 12 12 13 11 10 10 12 14 16 17 18 19 19 20 20 20 20 20 21 20 20 21 21 22 22 22 23 24 23 23 23 23 23 23 23 22 22 22 22 23 23 22 22 22 22 23 23 23 23 24 25 24
3 3 4 2 3 3 1 1 3 2 2 3 5 5 3 5 5 6 9 11 10 9 9 9 11 10 8 6 6 6 6 6 6 5 7 8 9 14 16 18 19 18 16 14 12 9 9 10 9 9 10 12 14 17 19 19 19 20 20 21 21 21 21 21 21 21 22 22 22 22 23 24 23 22 22 23 23 23 22 22 22 22 23 23 23 22 22 22 24 24 24 24 25 25 25 26 26
3 3 4 3 1 1 0 1 2 3 2 2 3 5 6 6 4 7 9 10 10 10 9 9 9 8 7 6 6 6 6 6 5 5 6 7 9 14 16 18 19 18 16 13 10 8 7 8 9 9 11 14 17 19 20 20 20 20 21 21 22 21 21 21 22 22 23 23 23 24 23 22 22 22 23 23 24 23 21 22 23 24 23 23 22 22 23 24 25 25 25 26 26 26 27 27 27
3 2 2 2 1 2 2 3 3 2 3 4 2 5 8 5 3 6 7 7 9 10 9 8 8 8 7 6 6 6 5 5 5 5 7 9 11 14 15 16 17 16 14 10 8 7 8 9 10 12 14 16 19 20 20 20 20 21 21 21 21 22 22 22 23 23 23 24 24 24 22 21 22 23 23 23 22 21 22 24 25 24 23 23 23 24 24 24 25 26 27 27 27 27 28 28 28
Wind_Direction
278 270 260 322 295 318 302 176 80 304 159 255 259 238 282 5 96 106 204 219 191 228 294 58 48 53 81 110 130 114 55 23 118 132 128 159 147 145 141 142 141 137 137 138 135 124 120 124 120 116 112 108 103 97 94 91 88 84 82 80 78 77 76 75 74 72 70 68 66 65 63 62 61 59 58 55 54 53 52 51 51 50 49 49 48 47 45 46 45 43 43 42 42 40 38 37 37
278 267 273 305 288 333 273 140 102 293 76 288 270 206 271 353 66 117 235 221 179 187 103 94 84 72 84 110 128 91 48 25 69 105 92 137 145 143 142 144 142 139 140 142 138 126 121 123 121 118 111 108 103 98 95 90 87 85 83 81 80 79 78 76 74 72 70 68 66 64 62 61 61 60 58 55 53 52 51 50 49 48 47 47 46 46 44 45 44 42 41 40 41 39 38 36 36
284 279 286 266 255 205 293 40 116 282 92 246 272 221 287 7 126 187 241 222 193 161 99 96 79 60 62 77 68 54 102 96 80 87 105 139 145 141 142 143 143 143 144 144 140 130 125 125 123 119 113 108 104 100 97 91 87 86 83 82 82 81 79 77 74 72 69 68 66 63 63 61 61 59 56 55 53 51 50 49 48 47 46 44 44 44 43 43 42 42 40 39 39 37 39 36 35
301 312 308 281 343 16 42 39 160 145 221 242 272 258 315 218 169 187 219 220 215 141 97 85 54 348 64 84 80 67 100 120 108 114 130 150 142 136 141 142 142 142 144 144 143 136 128 129 124 118 114 108 105 101 98 93 89 86 85 83 82 81 79 77 74 72 69 66 65 63 62 60 59 57 54 53 52 50 49 48 46 45 44 42 41 40 39 40 39 38 37 36 35 36 37 33 32
331 346 322 277 100 28 95 134 168 155 210 211 247 257 235 183 171 183 194 225 280 87 353 105 81 333 62 68 80 86 81 101 117 122 134 150 140 135 142 143 141 140 141 140 139 136 129 129 123 117 114 108 107 102 100 95 91 89 86 85 83 81 80 78 76 73 70 67 65 64 61 58 58 55 53 51 49 47 46 44 42 41 40 38 37 37 36 36 36 34 35 32 31 35 32 27 28
356 14 24 9 113 59 115 223 224 228 230 202 232 239 190 168 168 172 152 100 46 55 14 66 108 91 69 42 66 52 312 141 122 128 138 144 140 137 142 142 139 135 134 134 130 127 126 127 122 118 114 110 107 104 103 96 93 91 87 86 84 82 81 79 77 75 72 68 65 63 60 57 56 54 51 49 46 44 42 41 39 38 37 36 34 33 34 34 33 33 33 31 32 34 27 24 21
5 6 37 28 18 45 132 229 233 246 242 210 211 167 161 163 167 155 145 133 40 22 27 46 112 102 77 86 83 21 32 131 128 135 140 141 141 137 141 139 133 131 130 128 124 123 125 124 120 118 114 111 108 106 105 98 95 91 90 88 85 84 82 81 78 77 73 69 66 62 60 57 55 53 51 49 46 43 41 39 36 35 34 32 32 30 30 30 30 31 30 28 29 29 21 18 14
11 1 95 83 39 45 172 242 245 238 251 232 113 120 150 165 169 147 158 167 89 59 32 6 82 92 35 51 89 25 59 108 124 129 135 137 134 128 135 134 127 128 128 125 123 124 124 121 119 116 113 110 106 106 104 100 97 94 92 88 87 84 82 82 79 77 74 70 67 63 60 56 54 52 50 48 46 44 41 38 34 32 31 29 28 26 26 25 26 26 25 24 22 20 14 10 7
161 80 208 136 185 237 229 258 256 249 282 48 69 93 126 150 163 129 124 102 111 110 41 232 63 93 83 59 83 42 69 102 119 123 130 132 123 121 128 130 129 127 126 126 124 124 122 121 119 117 114 111 108 106 103 101 99 96 93 90 88 85 82 80 78 75 72 69 64 61 58 54 52 50 48 47 44 41 38 35 33 30 27 25 24 23 21 21 21 20 19 17 13 9 6 4 360
175 184 190 158 140 283 292 268 256 284 34 84 79 58 68 134 143 96 91 96 108 97 184 197 71 98 113 78 73 71 95 111 116 118 125 126 119 120 123 125 129 125 125 125 123 124 121 121 119 117 114 112 110 106 105 101 99 97 93 92 88 85 82 78 77 73 70 66 62 58 53 51 48 47 45 42 42 39 34 30 28 25 23 21 19 17 16 14 14 13 10 7 3 0 359 359 355
186 228 150 92 82 253 256 256 267 26 47 71 38 8 6 351 80 64 65 93 105 104 155 45 79 101 90 76 64 103 115 117 116 118 123 124 119 118 117 120 124 121 123 122 122 122 120 121 119 116 115 113 112 109 107 103 99 96 91 90 87 83 79 76 74 71 68 63 58 53 46 45 42 44 39 33 34 30 28 25 20 17 15 13 12 11 10 9 6 5 3 0 358 356 356 355 352
120 262 91 138 179 211 216 239 261 107 37 17 15 319 5 47 55 42 49 76 96 99 87 350 112 113 85 69 94 112 112 115 120 119 122 122 116 112 112 117 120 119 120 122 123 123 121 121 119 117 116 112 112 109 105 101 96 92 90 86 83 79 76 74 72 68 62 54 47 37 29 29 30 32 28 24 20 17 18 16 13 10 8 6 4 4 3 2 360 359 357 356 355 352 352 353 351
170 221 90 192 195 193 227 250 259 101 34 347 295 325 25 59 53 50 61 60 56 79 31 326 65 93 87 86 88 104 106 118 124 116 120 118 112 111 115 118 117 117 120 124 124 123 123 122 122 122 120 118 116 111 104 100 94 89 86 81 78 73 70 65 61 56 40 38 34 28 26 23 21 19 18 16 11 9 9 7 7 5 1 359 357 357 357 356 354 353 353 352 352 350 348 350 348
196 196 120 231 282 146 253 268 293 71 63 285 269 348 32 60 55 65 75 63 38 58 59 5 63 101 99 124 91 85 116 126 121 113 117 114 112 112 115 116 115 119 123 127 125 124 125 126 130 128 126 124 116 108 101 91 82 78 68 61 62 57 51 43 42 40 28 29 27 26 27 16 10 6 6 11 7 4 4 5 7 6 359 356 353 352 351 349 349 348 350 349 349 350 348 349 349
178 175 109 160 336 340 274 251 304 90 117 288 313 65 66 38 60 66 60 86 41 12 50 22 29 99 114 145 125 133 132 125 115 115 116 112 110 110 114 117 117 120 124 126 125 128 130 132 133 127 123 117 106 95 82 69 64 62 53 44 42 40 36 32 37 36 26 25 22 19 18 9 5 359 353 4 6 2 5 7 8 6 0 357 354 351 349 346 345 346 347 347 348 350 349 353 355
133 97 70 33 310 322 282 278 38 87 124 283 351 69 85 19 33 71 20 73 61 25 42 21 11 58 57 100 121 131 126 115 111 113 110 108 106 104 109 116 118 119 125 129 128 122 114 120 125 116 116 106 94 82 64 55 56 56 47 37 34 35 35 39 42 38 28 28 23 14 15 13 15 19 15 13 10 5 5 6 5 4 359 357 356 351 349 347 345 345 346 345 345 348 349 350 354
64 82 62 326 286 278 253 338 74 118 229 306 2 35 95 31 14 75 34 51 67 47 51 40 37 57 61 86 111 117 114 110 110 108 102 103 102 98 98 105 110 109 113 119 126 124 104 108 120 112 118 107 82 64 51 49 51 48 40 32 32 32 40 51 51 39 30 30 25 22 27 25 26 34 33 20 13 7 5 3 5 5 357 352 352 349 349 348 344 343 344 341 338 343 345 344 347
61 84 99 265 244 255 240 71 80 115 100 41 29 42 72 38 360 58 43 40 50 56 52 54 55 58 71 88 105 108 106 106 105 104 100 102 101 94 91 92 94 92 90 88 94 107 99 100 105 99 104 105 83 66 59 58 56 51 44 40 45 50 57 65 54 40 37 38 37 39 40 37 40 44 36 23 15 10 10 11 10 7 355 346 345 346 348 349 347 343 342 341 336 335 338 340 340
98 133 131 231 207 284 21 85 56 73 112 91 56 53 54 21 358 52 63 42 36 46 30 44 63 60 73 84 98 103 105 107 111 114 112 113 112 105 100 96 90 85 80 72 68 74 83 87 90 88 85 82 77 76 73 69 67 65 63 63 67 70 71 64 53 48 48 50 49 52 50 48 53 52 44 35 25 13 11 12 9 2 354 349 347 347 349 348 345 340 340 341 337 332 331 333 332
157 130 131 244 188 72 18 64 72 65 105 95 73 63 55 31 19 42 83 59 37 37 7 18 74 83 85 90 103 111 111 110 113 116 115 110 110 108 103 95 85 77 71 68 64 66 71 73 75 76 71 66 68 71 71 68 68 69 68 69 69 68 65 60 54 52 54 55 53 54 51 49 49 44 39 33 24 11 3 5 5 359 355 352 346 345 344 338 334 334 338 340 336 329 326 327 327
158 134 177 239 160 82 8 33 63 59 74 88 89 73 68 51 43 46 72 62 33 24 12 22 78 102 101 95 93 90 81 72 68 74 79 79 80 82 79 75 71 67 67 66 61 60 62 66 70 71 70 71 71 71 69 68 70 70 68 69 68 65 61 57 52 49 51 53 51 48 43 41 38 31 25 19 15 8 2 4 8 1 354 351 346 343 336 328 328 328 332 337 334 327 323 323 324
156 205 194 245 86 102 359 18 45 56 65 69 70 68 83 72 49 48 64 67 41 23 27 43 59 70 76 75 70 65 60 56 55 59 62 64 67 67 66 66 65 63 65 62 58 59 61 66 71 74 74 72 73 73 73 72 71 69 67 67 67 62 56 52 47 40 39 39 40 38 33 30 25 20 15 13 10 6 4 2 3 356 347 345 348 346 334 322 322 319 318 330 333 324 320 318 317
145 260 310 30 70 104 73 36 52 60 65 61 69 76 87 83 63 53 64 65 53 39 38 50 53 57 63 63 63 62 60 59 57 57 59 62 62 63 63 63 63 63 63 58 58 60 61 64 67 72 73 71 71 72 73 71 68 66 64 64 62 59 55 50 41 31 27 25 24 24 23 22 17 11 6 5 3 2 3 355 353 352 344 339 342 345 337 324 318 312 313 328 333 322 318 313 314
114 265 358 63 80 98 108 77 68 70 76 79 83 78 72 82 80 61 63 58 52 50 47 54 55 56 58 57 58 61 62 62 61 60 61 62 62 64 64 64 64 64 63 58 58 59 59 62 64 66 67 67 67 68 69 66 64 63 59 57 55 53 51 47 39 28 22 18 16 14 14 15 10 3 358 357 356 357 359 348 345 348 345 338 334 336 334 329 323 316 319 331 334 324 319 315 317
78 29 333 84 91 103 105 86 80 81 88 87 75 69 70 87 87 68 67 62 56 57 52 53 56 55 55 55 55 57 60 60 61 62 62 62 64 65 63 63 64 63 61 58 59 59 59 62 64 64 64 64 64 65 65 62 61 59 55 52 48 45 44 43 39 29 19 13 11 7 5 6 4 357 352 350 350 354 355 346 345 346 343 336 330 326 326 327 324 321 324 329 330 324 321 318 317
88 78 43 94 110 112 96 80 84 89 89 81 73 64 60 84 89 67 60 70 65 60 54 50 55 55 53 55 54 55 57 57 59 62 63 62 63 63 62 63 64 63 62 60 60 59 59 63 65 64 64 63 63 61 59 56 56 55 52 49 44 42 39 35 35 29 16 5 3 359 357 358 357 352 346 347 350 353 352 347 348 346 339 333 327 323 321 322 322 322 323 323 323 321 317 316 314
160 95 76 100 117 104 90 88 87 89 85 83 80 63 39 39 80 77 56 68 70 64 56 51 57 57 56 57 56 57 57 56 59 64 63 61 61 62 63 64 65 65 66 63 60 60 61 64 64 64 65 65 64 61 56 52 50 51 51 47 39 33 29 25 25 24 13 2 355 350 351 350 349 348 345 347 351 354 351 348 346 341 336 331 326 321 317 318 320 321 322 320 319 319 315 316 316
119 88 60 70 88 68 75 105 108 99 95 95 89 65 40 41 72 89 78 68 71 72 63 55 60 59 58 59 58 59 59 60 62 63 62 61 64 67 66 66 68 68 67 65 64 64 62 60 60 61 62 62 63 62 59 55 49 46 47 45 37 24 18 16 15 15 7 359 349 345 346 344 345 347 347 349 352 354 351 346 342 338 334 330 326 322 317 316 318 321 323 320 317 316 314 314 313
82 82 80 66 70 56 36 100 124 114 147 144 92 57 29 41 77 89 87 81 75 74 69 61 64 62 62 63 62 63 62 64 65 64 66 68 70 71 70 68 69 69 67 67 67 66 63 60 59 57 57 57 58 58 57 56 51 44 40 40 37 24 16 9 7 6 356 351 346 341 340 340 345 350 351 351 352 353 351 347 344 338 334 330 327 324 321 320 323 326 325 321 317 316 314 313 310
61 63 103 98 58 29 350 17 103 100 159 210 80 61 21 42 78 88 86 89 82 76 73 69 68 67 67 67 68 67 65 67 68 69 71 72 73 73 74 72 71 71 67 66 66 65 64 62 60 57 56 54 53 52 50 48 45 40 33 31 33 26 17 6 358 355 347 346 345 340 340 341 347 353 353 351 355 356 353 353 348 342 336 332 329 327 328 330 332 333 331 327 322 320 318 317 316
61 29 69 96 90 12 339 17 75 79 49 65 84 94 63 58 69 80 81 86 86 84 80 79 77 74 73 72 75 72 68 71 73 75 75 75 75 76 77 76 75 74 69 66 65 64 62 60 60 58 55 52 50 47 45 42 35 32 29 26 28 25 18 5 351 346 342 340 341 343 345 344 345 352 354 353 357 359 356 354 348 344 338 333 331 329 329 330 333 335 335 334 329 325 322 320 320
44 53 353 4 93 149 351 17 32 99 65 50 87 105 77 77 70 74 81 81 85 89 88 88 85 81 80 76 78 79 76 77 77 77 77 78 79 77 78 78 78 78 75 71 68 64 60 57 56 55 53 50 47 44 41 39 30 25 24 23 25 22 17 5 348 340 335 333 339 347 349 346 343 348 354 355 357 356 354 349 343 342 338 335 333 329 328 328 333 337 336 338 335 331 328 324 322
4 69 47 14 93 149 45 25 13 86 78 20 73 123 115 84 77 76 79 81 85 90 89 87 86 85 85 82 81 85 85 82 81 81 81 81 82 82 80 78 78 78 76 73 68 63 60 55 51 50 49 45 43 39 36 35 28 21 19 19 20 18 18 7 345 333 332 332 339 348 354 350 341 344 353 355 355 351 346 343 338 339 338 337 337 335 335 334 337 341 340 340 338 335 333 330 328
333 32 56 19 105 127 108 51 20 54 80 58 75 103 107 92 86 80 78 86 89 91 93 90 90 90 86 89 88 86 87 84 83 87 90 88 86 85 82 78 76 74 73 71 67 62 57 52 47 46 44 41 38 34 30 29 27 21 14 15 15 13 15 7 342 330 333 333 339 349 357 353 343 344 352 354 351 346 341 339 338 341 340 340 342 342 342 342 343 345 344 343 340 338 337 334 330
285 344 43 342 48 89 89 86 46 64 77 85 88 92 98 95 87 85 84 91 93 96 101 99 98 98 96 96 93 93 92 87 86 91 96 96 92 87 81 78 74 70 67 65 64 61 55 47 42 41 38 36 32 30 27 24 24 21 11 10 10 9 7 2 349 332 332 331 337 350 356 354 350 346 350 353 346 338 338 340 344 348 346 346 349 349 350 350 346 345 345 344 341 338 335 333 331
240 269 126 76 53 95 91 88 111 96 80 70 88 96 100 94 88 97 98 94 97 101 101 102 105 104 107 105 102 104 99 101 101 99 99 99 96 91 83 78 73 70 62 55 54 52 50 43 36 35 32 29 26 25 24 20 20 16 8 4 3 4 357 353 354 337 330 332 339 351 354 349 351 347 345 348 340 333 335 339 346 350 350 354 357 355 354 351 346 346 347 345 343 340 337 337 335
249 61 68 64 93 116 114 124 150 110 87 53 81 93 89 82 77 90 100 101 101 106 105 108 116 116 122 121 121 121 116 118 113 108 106 102 99 94 86 78 72 68 59 49 44 41 43 39 33 30 25 24 23 22 21 19 17 11 5 358 355 360 352 345 350 340 332 335 340 353 352 342 348 350 344 340 333 328 330 334 343 349 353 358 359 355 351 348 346 349 349 347 347 345 343 343 340
41 67 90 66 91 113 96 128 172 100 91 93 98 93 80 74 71 62 82 97 107 123 127 128 131 132 139 139 142 144 138 129 120 115 113 109 104 97 87 78 69 65 60 49 41 36 35 35 32 26 19 19 21 20 18 16 15 9 1 352 349 353 346 342 345 338 330 333 342 354 348 338 344 347 344 337 324 318 324 331 341 347 350 355 356 352 351 350 350 352 350 348 349 345 342 342 344
52 45 102 65 22 34 39 82 94 74 95 141 130 98 90 85 83 65 69 85 93 121 134 147 150 148 155 157 159 157 153 145 137 130 123 118 114 104 90 80 71 64 59 51 42 33 28 28 25 17 13 13 14 15 14 11 9 6 358 350 348 345 337 341 340 326 325 332 343 351 341 338 343 342 343 336 317 312 321 328 338 341 344 352 354 351 350 349 350 350 347 347 346 341 339 341 346
57 55 84 356 357 68 32 52 56 42 89 143 137 102 106 109 86 79 96 106 91 89 101 124 144 158 171 172 169 163 161 162 157 148 137 130 124 115 100 85 74 63 54 43 35 29 22 19 15 11 7 3 5 7 8 5 1 0 355 349 350 340 329 337 334 321 328 334 339 344 338 339 341 336 340 338 317 311 321 325 332 334 338 348 350 350 347 343 346 344 341 343 343 339 336 336 339
12 72 93 158 26 98 202 126 84 52 67 133 127 89 112 167 142 173 168 136 127 111 103 99 116 141 143 144 158 165 169 168 164 161 152 143 136 126 112 93 69 58 49 31 25 25 20 13 7 6 1 354 354 357 0 360 358 356 352 349 350 340 332 339 340 334 336 335 335 338 335 335 337 332 338 343 329 319 324 325 327 330 335 342 347 348 342 338 341 337 334 339 341 339 334 331 331
340 30 136 167 155 194 235 142 112 76 41 201 147 71 295 205 177 194 192 169 169 158 148 156 167 154 130 130 156 160 161 166 167 168 162 153 144 137 130 115 61 45 42 20 15 19 18 10 4 358 354 348 342 346 353 354 355 354 348 346 346 338 336 342 341 337 335 333 332 330 329 331 333 329 328 340 341 329 326 326 323 329 332 337 345 347 340 337 337 333 333 334 335 334 331 329 325
357 294 169 158 145 165 185 136 115 115 236 220 172 134 215 228 218 201 186 179 186 185 180 187 192 185 172 173 181 173 169 172 171 166 157 151 152 158 174 203 242 356 15 2 4 11 8 4 5 350 340 340 335 337 345 347 348 348 344 341 338 330 331 333 330 329 328 327 327 324 327 331 329 326 318 328 341 330 321 323 319 325 328 331 342 345 337 333 330 329 329 327 326 326 327 325 320
310 273 156 175 269 213 169 137 136 190 220 137 158 136 117 233 230 196 175 171 194 204 205 201 196 192 186 184 187 183 183 181 174 163 152 155 172 199 217 224 233 266 328 333 345 357 349 349 356 351 336 329 328 329 334 339 341 342 340 334 329 323 319 321 322 325 326 325 325 324 328 330 328 326 318 323 340 333 320 321 320 322 323 328 337 339 331 328 328 327 325 324 324 324 324 320 315
265 274 305 283 265 209 148 122 144 189 65 41 219 127 105 257 229 165 168 178 214 216 210 205 195 187 181 179 180 178 182 181 177 176 173 182 203 221 225 222 228 245 258 261 293 325 332 335 343 354 349 326 318 321 324 329 334 336 335 330 322 316 310 311 316 322 327 325 324 324 325 326 324 324 320 319 333 335 328 324 321 321 321 325 332 331 327 327 327 327 325 326 325 322 321 316 312
280 293 328 331 329 114 110 117 142 91 69 296 265 118 124 246 206 169 191 217 223 214 208 208 197 187 184 182 184 185 191 190 187 191 200 215 224 222 219 218 224 233 229 233 256 287 314 329 339 351 353 332 313 313 316 322 327 329 331 327 319 315 307 305 310 319 325 323 321 323 323 321 319 322 323 315 318 329 332 329 324 322 322 324 327 328 328 326 325 325 325 324 324 322 320 316 312
309 329 354 22 38 64 82 101 108 76 43 256 257 193 129 231 234 192 200 217 196 184 198 210 202 196 193 189 191 194 196 197 197 201 213 228 223 211 210 213 217 221 220 228 245 276 307 328 334 333 343 340 316 307 312 315 318 322 327 325 317 313 306 302 309 317 323 322 319 320 320 318 318 321 321 318 315 319 326 330 327 323 322 322 324 326 325 321 321 321 320 320 321 320 318 316 313
8 7 21 33 6 18 34 2 46 72 274 249 257 247 131 151 250 208 205 215 177 169 186 198 201 200 198 197 198 198 197 196 197 202 209 205 187 193 202 209 211 211 213 222 242 275 301 316 321 314 325 337 325 309 309 310 312 316 321 321 314 309 305 302 307 313 317 317 315 316 316 316 318 318 318 318 316 313 316 321 322 320 321 322 324 324 321 317 316 317 316 317 317 315 314 313 311
22 17 37 54 10 12 20 337 11 78 244 249 283 307 137 214 250 211 198 204 196 191 189 194 200 200 201 202 199 198 197 199 202 203 201 193 190 197 202 205 206 206 211 222 241 266 282 293 304 303 307 325 326 315 310 307 308 312 315 317 311 305 302 301 303 306 311 312 310 311 312 314 315 315 314 314 315 314 313 313 314 317 319 321 322 321 318 314 312 313 313 312 311 310 310 308 306
4 4 63 96 85 46 354 298 346 306 265 280 331 350 247 280 283 216 193 197 205 203 196 199 199 198 203 202 199 203 205 208 212 205 200 204 212 214 209 207 207 209 215 224 237 244 256 277 289 290 296 311 319 316 311 305 305 308 312 313 309 303 299 298 299 302 307 308 305 306 308 309 309 309 311 311 313 313 310 309 310 311 312 316 318 316 313 311 310 310 309 308 307 306 305 304 301
300 195 111 115 131 124 175 224 209 251 275 298 338 13 210 248 302 256 199 193 198 195 207 216 204 206 204 201 203 210 216 219 213 205 209 216 220 218 215 212 211 213 216 221 225 229 249 274 278 280 291 301 309 314 311 304 303 306 308 308 307 304 297 293 295 299 304 304 303 304 305 306 305 305 307 308 309 309 308 308 307 307 310 313 314 311 309 308 307 306 305 304 303 303 302 300 298
281 119 84 70 160 141 156 198 195 205 289 296 310 262 209 204 290 284 179 163 197 211 229 234 237 237 214 210 220 219 226 230 216 208 215 217 216 218 219 214 212 213 214 216 222 236 264 275 271 272 282 290 301 311 308 302 303 303 303 303 305 305 296 290 292 297 302 302 300 303 303 302 302 303 305 306 305 306 305 305 305 307 309 309 309 309 308 306 304 304 304 301 300 300 299 297 296
314 48 73 237 179 127 115 280 273 79 51 282 287 294 291 326 293 268 185 187 225 231 235 230 234 240 229 227 231 227 233 229 215 210 215 218 220 222 219 212 210 210 211 219 232 257 274 268 259 261 269 283 299 308 306 304 303 300 299 300 304 305 297 292 294 297 300 299 299 301 300 299 301 303 305 304 303 303 302 303 305 306 306 305 307 308 307 305 304 304 303 300 299 299 298 295 294
99 78 213 223 67 83 101 17 347 33 45 272 291 275 279 314 283 257 227 229 233 230 230 231 234 237 235 236 234 232 229 217 208 211 219 226 224 218 213 209 210 213 218 227 241 263 266 252 245 251 266 289 304 307 306 306 303 298 296 300 304 303 297 295 297 298 298 298 299 299 297 298 301 302 303 302 302 302 302 304 305 305 305 305 305 305 304 303 303 303 301 298 297 297 296 294 293
114 160 178 93 79 15 36 85 352 350 290 281 302 298 262 223 217 219 222 225 226 227 226 229 236 234 232 234 231 227 217 206 213 218 228 237 229 214 208 209 212 215 221 230 242 253 245 232 235 254 279 299 306 306 308 307 301 295 295 299 302 301 297 295 296 297 298 298 298 296 296 298 300 300 300 301 300 302 304 305 304 303 304 304 304 303 301 302 302 301 300 298 296 296 295 292 292
17 32 9 40 132 168 174 146 167 179 261 282 307 323 285 236 210 190 213 219 213 218 222 225 231 228 221 219 214 213 212 214 224 231 242 253 237 217 211 211 213 214 218 224 230 230 220 221 242 271 293 305 309 310 311 306 298 294 294 298 301 300 296 294 295 298 299 298 296 295 296 298 297 297 298 299 300 302 303 302 302 303 303 303 303 302 300 301 301 299 298 296 296 295 294 292 291
6 30 9 352 1 102 140 258 162 139 164 238 293 300 268 248 202 186 209 215 204 206 212 218 223 218 214 212 207 211 217 220 230 233 227 225 216 210 211 214 212 212 214 215 215 216 221 239 262 283 300 309 314 314 309 301 295 293 294 297 300 298 295 293 295 298 298 297 296 296 296 295 294 295 298 298 299 298 298 300 300 300 300 300 300 300 300 301 300 298 297 296 295 294 293 291 290
161 143 166 175 112 78 79 293 294 105 150 183 215 277 268 254 194 187 198 199 200 202 203 212 217 215 220 223 215 210 210 218 227 226 216 213 212 208 205 204 204 205 207 209 219 236 248 262 276 289 300 309 313 311 304 298 294 292 293 296 298 297 294 293 296 298 297 296 296 296 294 292 293 296 298 298 297 295 298 301 299 296 296 297 297 298 299 299 298 298 297 295 295 294 292 291 289